Location: Newark
(40.9833°N, 0.0333°W)
Time: 16:52:12
(UTC+00:00)

Vanguard 2 Rocket - Pass Details

Date: 04 November 2020
Orbit: 554 x 3326 km, 32.9° (Epoch: 24 November)

Event Time Altitude Azimuth Distance (km) Brightness Sun altitude
Rises 18:09:37 0° 255° (WSW) 2,888 11.4 -15.0°
Reaches altitude 10° 18:12:15 10° 243° (WSW) 1,863 9.7 -15.5°
Maximum altitude 18:15:37 26° 184° (S) 1,097 7.4 -16.1°
Enters shadow 18:17:54 16° 137° (SE) 1,512 7.7 -16.6°
Drops below altitude 10° 18:19:06 10° 126° (SE) 1,919 - -16.8°
Sets 18:21:51 0° 113° (ESE) 2,996 - -17.3°
